| time (UTC) | temp F | wind direction | speed MPH | gust MPH | rain 1hr in | rain 24hr in | rain mn in | humidity % | barometer mb |
| 20260506155801 | 51 | 315 | 6.0 | 6.0 | 0.00 | 0.54 | 0.00 | 75 | 1006.3 |
| 20260506145802 | 51 | 22 | 10.0 | 10.0 | 0.00 | 0.54 | 0.00 | 77 | 1006.3 |
| 20260506135802 | 50 | 45 | 8.0 | 8.0 | 0.00 | 0.54 | 0.00 | 81 | 1006.4 |
| 20260506125802 | 53 | 337 | 8.0 | 8.0 | 0.00 | 0.54 | 0.00 | 80 | 1006.3 |
| 20260506115802 | 52 | 45 | 10.0 | 10.0 | 0.00 | 0.54 | 0.00 | 80 | 1006.1 |
| 20260506105802 | 52 | 22 | 9.0 | 9.0 | 0.00 | 0.54 | 0.00 | 71 | 1006.3 |
| 20260506095802 | 51 | 67 | 11.0 | 11.0 | 0.00 | 0.54 | 0.00 | 71 | 1005.8 |
| 20260506085802 | 50 | 67 | 13.0 | 13.0 | 0.00 | 0.54 | 0.00 | 75 | 1005.8 |
| 20260506035802 | 48 | 67 | 9.0 | 9.0 | 0.00 | 0.54 | 0.00 | 88 | 1005.2 |
| 20260506025801 | 49 | 67 | 8.0 | 8.0 | 0.00 | 0.54 | 0.00 | 88 | 1005.5 |
| 20260506015802 | 48 | 67 | 5.0 | 5.0 | 0.00 | 0.54 | 0.00 | 84 | 1005.9 |
| 20260506005801 | 48 | 67 | 6.0 | 6.0 | 0.00 | 0.54 | 0.00 | 83 | 1005.9 |
| 20260505235802 | 49 | 90 | 11.0 | 11.0 | 0.00 | 0.54 | 0.00 | 88 | 1006.1 |
| 20260505225801 | 49 | 67 | 10.0 | 10.0 | 0.00 | 0.54 | 0.00 | 85 | 1006.5 |
| 20260505215801 | 48 | 45 | 10.0 | 10.0 | 0.00 | 0.54 | 0.00 | 83 | 1006.8 |
| 20260505205802 | 49 | 67 | 9.0 | 9.0 | 0.00 | 0.54 | 0.00 | 82 | 1006.8 |
| 20260505195801 | 49 | 67 | 8.0 | 8.0 | 0.00 | 0.54 | 0.00 | 83 | 1007.0 |
| 20260505185801 | 49 | 67 | 10.0 | 10.0 | 0.00 | 0.54 | 0.00 | 81 | 1006.7 |
| 20260505175802 | 49 | 45 | 8.0 | 8.0 | 0.00 | 0.54 | 0.00 | 85 | 1007.0 |
| 20260505165801 | 49 | 45 | 9.0 | 9.0 | 0.00 | 0.54 | 0.00 | 85 | 1007.3 |